User: anonymous   Login
Location: Asheville, NC
(35.6000°N, 82.5500°W)
Time: 14:59:30
(UTC-05:00)
Language:

AO-7 - Orbit

View from above orbital plane
View from above orbital plane
View from above satellite
View from above satellite

Ground track
Ground track

The orbit data is extracted from the following two-line orbital elements,

1 07530U 74089B   18018.47605005 -.00000046  00000-0 -10127-4 0  9995
2 07530 101.6655 348.1749 0011808 265.6193 206.1434 12.53630712975839
Epoch (UTC): 18 January 2018 11:25:30
Eccentricity: 0.0011808
inclination: 101.6655°
perigee height: 1440 km
apogee height: 1458 km
right ascension of ascending node: 348.1749°
argument of perigee: 265.6193°
revolutions per day: 12.53630712
mean anomaly at epoch: 206.1434°
orbit number at epoch: 97583

The dashed part of the orbit path shows where the satellite is in the earth's shadow,  

DLR